Regional Weather Roundup
Issued by NWS

Home | Current Version | Previous Version | Graphics & Text | Print | Product List | Glossary On
Versions: 1 2 3 4 5 6 7 8 9 10 11 12 13 14 15 16 17 18 19 20 21 22 23 24 25 26 27 28 29 30 31 32 33 34 35 36 37 38 39 40 41 42 43 44 45 46 47 48 49 50
000
ASUS43 KLOT 020710
RWRIL

ILLINOIS REGIONAL WEATHER ROUNDUP
NATIONAL WEATHER SERVICE CHICAGO/ROMEOVILLE IL
200 AM CDT SAT AUG 02 2014

NOTE: "FAIR" INDICATES FEW OR NO CLOUDS BELOW 12,000 FEET WITH NO
SIGNIFICANT WEATHER AND/OR OBSTRUCTIONS TO VISIBILITY.

* THESE STATIONS ARE NOT UNDER NWS QUALITY CONTROL. THEY ALSO MAY NOT
  REPORT WEATHER SUCH AS PRECIPITATION OR FOG.

ILZ001-002-007-009-015-016-024-020800-
NORTHWEST ILLINOIS

CITY           SKY/WX    TMP DP  RH WIND       PRES   REMARKS
MOLINE         CLEAR     62  60  93 CALM      30.09F
STERLING*      MOCLDY    61  57  88 CALM      30.10S
SAVANNA*       CLEAR     59  56  88 CALM      30.09F
$$

ILZ003-004-008-010-011-017-018-020800-
NORTH CENTRAL ILLINOIS

CITY           SKY/WX    TMP DP  RH WIND       PRES   REMARKS
ROCKFORD       PTCLDY    60  56  86 N6        30.11R
FREEPORT*      CLEAR     57  56  94 CALM      30.12S FOG
ROCHELLE*      PTCLDY    57  56  94 S6        30.09S
DE KALB*       PTCLDY    57  55  94 E5        30.11R
PERU*          MOCLDY    61  57  88 CALM      30.10S
$$

ILZ005-006-012>014-019>023-020800-
NORTHEAST ILLINOIS

CITY           SKY/WX    TMP DP  RH WIND       PRES   REMARKS
CHICAGO-OHARE  PTCLDY    64  53  67 W7        30.08S
CHICAGO-MIDWAY PTCLDY    68  60  75 E3        30.08R
AURORA         CLEAR     59  54  83 NW3       30.10R
LANSING*       PTCLDY    60  59  95 CALM      30.09S
JOLIET*        PTCLDY    62  58  88 CALM      30.09R
WAUKEGAN       CLEAR     59  55  87 W5        30.08R
DUPAGE AIRPORT CLEAR     60  54  80 CALM      30.09S
KANKAKEE*      FOG       59  58  99 CALM      30.09S VSB 1/2
WHEELING       CLEAR     63  56  78 NW5       30.09S
MORRIS*        PTCLDY    61  61 100 NW5       30.08S FOG
ROMEOVILLE*    CLEAR     60  59  94 CALM      30.08S
NORTHERLY ISL    N/A     66  62  87 S2          N/A
$$

LMZ740>746-020800-
SOUTHERN LAKE MICHIGAN

STATION/POSITION SKY/WX   TEMP    WIND        PRES    VSBY  WAVE
                          AIR SEA DIR/SP/G                  HT/PER
                          (F)     (DEG/KT/KT) (MB)    (MI)  (FT/S)
SOUTHERN BUOY              65 63  110/  2/  2 1018.7F         1
WAUKEGAN HARBOR            65     300/  4/  9   N/A
HARRISON CRIB              67     160/  9/ 11   N/A
BURNHAM HARBOR             66     220/  1/  6   N/A
CALUMET HARBOR             66     120/  2/  3 1017.4S
MICHIGAN CITY              63     120/  5/  5   N/A
MICHIGAN CITY 6N           67 69  110/  2/  2   N/A           1
ST. JOSEPH                 68 70  150/  2/  4   N/A           0
$$

ILZ025>027-034>036-040-047-049-050-058-095>099-020800-
WEST-CENTRAL ILLINOIS

CITY           SKY/WX    TMP DP  RH WIND       PRES   REMARKS
QUINCY         CLEAR     63  61  93 SE5       30.10S
GALESBURG*     CLEAR     58  57  96 N8        30.11R
MACOMB*        CLEAR     57  57 100 CALM      30.13R
JACKSONVILLE*  CLEAR     61  59  94 CALM      30.11S
PITTSFIELD*    CLEAR     63  61  93 CALM      30.11F
$$

ILZ028>032-037-038-041>044-048-051>054-059>061-020800-
CENTRAL ILLINOIS

CITY           SKY/WX    TMP DP  RH WIND       PRES   REMARKS
PONTIAC        MOCLDY    61  61 100 CALM      30.08S FOG
DECATUR        CLEAR     59  57  93 NW7       30.10F
PEORIA         PTCLDY    65  61  87 SW5       30.09F
LACON*         MOCLDY    59  57  92 CALM      30.09R
LINCOLN*       PTCLDY    60  58  94 CALM      30.07F FOG
SPRINGFIELD    PTCLDY    63  61  93 CALM      30.10F
TAYLORVILLE    CLEAR     55  55 100 CALM      30.10F FOG
$$

ILZ033-039-045-046-055>057-062-063-020800-
EAST-CENTRAL ILLINOIS

CITY           SKY/WX    TMP DP  RH WIND       PRES   REMARKS
CHAMPAIGN      CLEAR     61  59  93 CALM      30.09F
DANVILLE*      PTCLDY    60  59  98 N6        30.06F FOG
RANTOUL*       PTCLDY    65  57  77 CALM      30.10F
MATTOON        CLEAR     61  60  97 CALM      30.09F FOG
PARIS*         CLOUDY    65  64  95 CALM      30.09F
$$

ILZ079-100>102-020800-
SOUTHWEST ILLINOIS

CITY           SKY/WX    TMP DP  RH WIND       PRES   REMARKS
ALTON          CLEAR     59  59 100 N5        30.10S FOG
BELLEVILLE     CLEAR     63  61  94 W1        30.07F FOG
CAHOKIA*       CLEAR     63  61  93 CALM      30.08F FOG
SPARTA*        MOCLDY    63  63 100 CALM      30.09F
$$

ILZ064>066-069>071-074>076-080>082-084>086-088>090-092>094-020800-
SOUTH-CENTRAL ILLINOIS

CITY           SKY/WX    TMP DP  RH WIND       PRES   REMARKS
CARBONDALE     MOCLDY    66  63  90 CALM      30.08S
CAIRO*         PTCLDY    69  64  82 CALM      30.06S
EFFINGHAM*     RAIN      60  57  91 CALM      30.10S
MARION         CLOUDY    66  64  94 CALM      30.08S
MT. VERNON     PTCLDY    64  59  82 CALM      30.08F
CENTRALIA*     CLEAR     62  60  93 CALM      30.08F
SALEM*         CLEAR     65  63  93 NE3       30.08F
METROPOLIS*    MOCLDY    70  61  72 NE3       30.05F
$$

ILZ067-068-072-073-078-083-087-091-020800-
SOUTHEAST ILLINOIS

CITY           SKY/WX    TMP DP  RH WIND       PRES   REMARKS
LAWRENCEVILLE  CLOUDY    68  63  84 N5        30.07F THUNDER
FLORA*         CLOUDY    64  60  89 N6        30.09F
FAIRFIELD*     LGT RAIN  66  64  94 CALM      30.07F
HARRISBURG*    CLOUDY    67  65  96 CALM      30.09S
ROBINSON*      MOCLDY    67  66  96 CALM      30.09S
CARMI*         CLOUDY    66  64  94 CALM      30.07F
$$

ABBREVIATIONS USED IN REMARKS
   TC - TEMPERATURE IN CELSIUS
  WCI - WIND CHILL INDEX
   HX - HEAT INDEX
  VSB - VISIBILITY
$$




USA.gov is the U.S. government's official web portal to all federal, state and local government web resources and services.